This is the latest recevied weather packets stored in our database for station/object KC5DP. If no packets are shown the sender has not sent any weather packets the latest 10 day(s).
| Time | Temp. | Humidity | Pressure | Rain* | Wind** | Luminosity | Snow |
|---|---|---|---|---|---|---|---|
| 1777527944 | 19.44° C | 99% | 1013.4 hPa | 1.78 mm | - | 0 W/m² | - |
| 1777527639 | 19.44° C | 99% | 1012.8 hPa | 1.78 mm | - | 0 W/m² | - |
| 1777527335 | 19.44° C | 99% | 1012.5 hPa | 0 mm | - | 0 W/m² | - |
| 1777527031 | 19.44° C | 99% | 1012.1 hPa | 0 mm | - | 0 W/m² | - |
| 1777526726 | 19.44° C | 99% | 1012.1 hPa | 0 mm | - | 0 W/m² | - |
| 1777526422 | 19.44° C | 99% | 1012.1 hPa | 0 mm | - | 0 W/m² | - |
| 1777526117 | 19.44° C | 99% | 1012.4 hPa | 1.27 mm | - | 0 W/m² | - |
| 1777525814 | 19.44° C | 99% | 1012.1 hPa | 1.27 mm | - | 0 W/m² | - |
| 1777525512 | 19.44° C | 99% | 1012.4 hPa | 0 mm | - | 0 W/m² | - |
| 1777525208 | 19.44° C | 99% | 1013 hPa | 3.05 mm | - | 0 W/m² | - |
| 1777524903 | 19.44° C | 98% | 1013.1 hPa | 7.87 mm | - | 0 W/m² | - |
| 1777524601 | 19.44° C | 98% | 1013.2 hPa | 7.87 mm | - | 0 W/m² | - |
| 1777524299 | 19.44° C | 98% | 1013.3 hPa | 6.1 mm | - | 0 W/m² | - |
| 1777523995 | 19.44° C | 98% | 1013.4 hPa | 4.83 mm | - | 0 W/m² | - |
| 1777523691 | 19.44° C | 98% | 1013.7 hPa | 4.32 mm | - | 0 W/m² | - |
| 1777523387 | 19.44° C | 98% | 1013.4 hPa | 6.1 mm | - | 0 W/m² | - |
| 1777523084 | 19.44° C | 98% | 1013.3 hPa | 6.1 mm | - | 0 W/m² | - |
| 1777522780 | 19.44° C | 98% | 1013 hPa | 6.6 mm | - | 0 W/m² | - |
| 1777522477 | 19.44° C | 98% | 1013.7 hPa | 6.6 mm | - | 0 W/m² | - |
| 1777522175 | 19.44° C | 98% | 1013.9 hPa | 6.1 mm | - | 0 W/m² | - |
| 1777521871 | 19.44° C | 98% | 1014 hPa | 4.32 mm | - | 0 W/m² | - |
| 1777521567 | 19.44° C | 98% | 1013.8 hPa | 6.1 mm | - | 0 W/m² | - |
| 1777521266 | 19.44° C | 98% | 1014.1 hPa | 9.65 mm | - | 0 W/m² | - |
| 1777520962 | 19.44° C | 98% | 1014.2 hPa | 7.87 mm | - | 0 W/m² | - |
| 1777520659 | 19.44° C | 98% | 1014 hPa | 6.1 mm | - | 0 W/m² | - |
* Rain latest hour (hover to see other rain measurements)
** Current wind speed in m/s (hover to see current wind gust speed)